Location: Unspecified
(39.4820°N, 0.0000°E)
Time: 04:02:42
(UTC+00:00)

Cosmos 1150 Rocket - Visible Passes

Search period start: 04 April 2026 00:00
Search period end: 14 April 2026 00:00
Orbit: 963 x 994 km, 83.0° (Epoch: 29 March)

Date Brightness Start Highest point End Pass type
(mag) Time Alt. Az. Time Alt. Az. Time Alt. Az.
4 Apr 7.3 01:12:48 15° NNW 01:12:48 15° NNW 01:14:04 10° NNW visible
4 Apr 7.1 23:53:59 21° N 23:53:59 21° N 23:55:55 10° N visible
5 Apr 7.4 22:35:10 12° NE 22:35:10 12° NE 22:35:46 10° NNE visible
6 Apr 7.1 00:19:52 21° NNW 00:19:52 21° NNW 00:21:57 10° N visible
6 Apr 7.1 23:01:02 19° NNE 23:01:02 19° NNE 23:02:43 10° NNE visible
7 Apr 7.2 00:45:44 17° NNW 00:45:44 17° NNW 00:47:32 10° NNW visible
7 Apr 6.9 23:26:53 24° N 23:26:53 24° N 23:29:11 10° N visible
8 Apr 7.5 01:11:36 11° NW 01:11:36 11° NW 01:12:11 10° NW visible
8 Apr 7.3 22:08:02 13° NE 22:08:02 13° NE 22:08:49 10° NE visible
8 Apr 6.9 23:52:44 25° NNW 23:52:44 25° NNW 23:55:16 10° N visible
9 Apr 6.9 22:33:52 20° NNE 22:33:52 20° NNE 22:35:53 10° NNE visible
10 Apr 7.1 00:18:34 20° NNW 00:18:34 20° NNW 00:20:58 10° NNW visible
10 Apr 6.6 22:59:41 28° NNE 22:59:41 28° NNE 23:02:26 10° N visible
11 Apr 7.3 00:44:23 13° NW 00:44:23 13° NW 00:45:53 10° NNW visible
11 Apr 7.1 21:40:47 13° NE 21:40:47 13° NE 21:41:49 10° NE visible
11 Apr 6.6 23:25:29 30° NNW 23:25:29 30° NNW 23:28:35 10° N visible
12 Apr 6.7 22:06:35 22° NE 22:06:35 22° NE 22:09:03 10° NNE visible
12 Apr 6.8 23:51:16 24° NW 23:51:16 24° NW 23:54:22 10° NNW visible
13 Apr 6.3 22:32:21 33° NNE 22:32:21 33° NNE 22:35:40 10° NNE visible
